Muskogee, OK

5:05 AM CST on February 21, 2017 (GMT -0600)
Davis

Weather History for KMKO - December, 2012

Change the Weather History Date:

Monday, December 31, 2012

  Actual Average Record
Temperature  
Mean Temperature 35 °F -  
Max Temperature 37 °F 47 °F 73 °F (2004)
Min Temperature 33 °F 27 °F 12 °F (2000)
Degree Days  
Heating Degree Days 30    
Moisture  
Dew Point 35 °F    
Average Humidity 99    
Maximum Humidity 100    
Minimum Humidity 92    
Precipitation  
Precipitation 0.92 in - - ()
Sea Level Pressure  
Sea Level Pressure 30.11 in    
Wind  
Wind Speed 7 mph (SE)    
Max Wind Speed 13 mph    
Max Gust Speed -    
Visibility 3 miles    
Events Fog , Rain    
Averages and records for this station are not official NWS values.
T = Trace of Precipitation, MM = Missing Value Source: NWS Daily Summary

Daily Weather History Graph

Daily Weather History Graph

Search for Another Location

Airport or City:

Trip Planner

Search our weather history database for the weather conditions in past years. The results will help you decide how hot, cold, wet, or windy it might be!

Date:

Astronomy

Dec. 31, 2012 Rise Set
Actual Time 7:31 AM CST 5:18 PM CST
Civil Twilight 7:02 AM CST 5:46 PM CST
Nautical Twilight 6:30 AM CST 6:18 PM CST
Astronomical Twilight 5:59 AM CST 6:49 PM CST
Moon 8:42 PM CST (12/31) 9:19 AM CST (12/31)
Length of Visible Light 10h 44m
Length of Day
9h 47m
Waning Gibbous, 90% of the Moon is Illuminated
Dec 31
Waning Gibbous
Jan 4
Last Quarter
Jan 11
New
Jan 18
First Quarter
Jan 26
Full

Hourly Weather History & Observations

Time (CST) Temp. Windchill Dew Point Humidity Pressure Visibility Wind Dir Wind Speed Gust Speed Precip Events Conditions
12:53 AM 34.0 °F 25.5 °F 32.0 °F 92% 30.24 in 5.0 mi SSE 11.5 mph - 0.07 in Rain Light Rain
1:53 AM 34.0 °F 26.6 °F 33.1 °F 96% 30.25 in 5.0 mi SSE 9.2 mph - 0.06 in Rain Rain
2:06 AM 33.8 °F 27.0 °F 33.8 °F 100% 30.24 in 5.0 mi SSE 8.1 mph - 0.02 in Rain Light Rain
2:53 AM 34.0 °F 28.0 °F 33.1 °F 96% 30.25 in 4.0 mi SSE 6.9 mph - 0.05 in Rain Light Rain
3:39 AM 33.8 °F 27.0 °F 33.8 °F 100% 30.22 in 5.0 mi SE 8.1 mph - 0.05 in Rain Rain
3:53 AM 34.0 °F 28.0 °F 34.0 °F 100% 30.23 in 5.0 mi SE 6.9 mph - 0.07 in Rain Light Rain
4:53 AM 34.0 °F 29.8 °F 34.0 °F 100% 30.21 in 4.0 mi ESE 4.6 mph - 0.05 in Rain Light Rain
5:53 AM 34.0 °F 27.2 °F 34.0 °F 100% 30.18 in 5.0 mi SE 8.1 mph - 0.05 in Rain Light Rain
6:53 AM 34.0 °F 29.8 °F 34.0 °F 100% 30.17 in 5.0 mi SE 4.6 mph - 0.05 in Rain Light Rain
7:37 AM 33.8 °F 30.8 °F 33.8 °F 100% 30.14 in 4.0 mi ESE 3.5 mph - 0.06 in Rain Rain
7:53 AM 34.0 °F 29.8 °F 34.0 °F 100% 30.15 in 4.0 mi SE 4.6 mph - 0.07 in Rain Light Rain
8:06 AM 33.8 °F 29.6 °F 33.8 °F 100% 30.14 in 2.5 mi ESE 4.6 mph - 0.01 in Rain Light Rain
8:53 AM 35.1 °F 28.6 °F 34.0 °F 96% 30.14 in 3.0 mi ESE 8.1 mph - 0.05 in Rain Light Rain
9:19 AM 35.6 °F 30.7 °F 33.8 °F 93% 30.15 in 2.5 mi SE 5.8 mph - 0.03 in Rain Light Rain
9:30 AM 35.6 °F - 33.8 °F 93% 30.17 in 1.2 mi Calm Calm - 0.09 in Rain Heavy Rain
9:38 AM 35.6 °F - 33.8 °F 93% 30.18 in 1.2 mi Calm Calm - 0.13 in Rain Heavy Rain
9:46 AM 35.6 °F 31.7 °F 33.8 °F 93% 30.16 in 1.8 mi ESE 4.6 mph - 0.16 in Rain Rain
9:53 AM 35.1 °F 30.1 °F 35.1 °F 100% 30.17 in 1.8 mi East 5.8 mph - 0.18 in Rain Heavy Rain
10:00 AM 35.6 °F 29.9 °F 35.6 °F 100% 30.15 in 2.0 mi ESE 6.9 mph - 0.03 in Rain Rain
10:26 AM 35.6 °F 29.9 °F 35.6 °F 100% 30.14 in 3.0 mi ESE 6.9 mph - 0.07 in Rain Light Rain
10:48 AM 35.6 °F - 35.6 °F 100% 30.15 in 2.0 mi Calm Calm - 0.10 in Rain Rain
10:53 AM 35.1 °F - 34.0 °F 96% 30.17 in 2.0 mi Calm Calm - 0.10 in Rain Light Rain
11:20 AM 35.6 °F 31.7 °F 35.6 °F 100% 30.15 in 1.8 mi ESE 4.6 mph - 0.04 in Rain Light Rain
11:38 AM 35.6 °F 29.2 °F 35.6 °F 100% 30.12 in 2.0 mi ESE 8.1 mph - 0.07 in Rain Rain
11:49 AM 35.6 °F 29.2 °F 35.6 °F 100% 30.11 in 2.5 mi ESE 8.1 mph - 0.08 in Rain Light Rain
11:53 AM 36.0 °F 28.5 °F 35.1 °F 97% 30.11 in 2.5 mi ESE 10.4 mph - 0.08 in Rain Light Rain
12:05 PM 35.6 °F 27.5 °F 35.6 °F 100% 30.09 in 3.0 mi ESE 11.5 mph - 0.00 in Rain Light Rain
12:12 PM 35.6 °F 28.0 °F 35.6 °F 100% 30.08 in 2.5 mi SE 10.4 mph - 0.01 in Rain Light Rain
12:25 PM 35.6 °F 27.5 °F 35.6 °F 100% 30.07 in 3.0 mi ESE 11.5 mph - 0.02 in Rain Light Rain
12:33 PM 35.6 °F 27.5 °F 35.6 °F 100% 30.06 in 2.5 mi SE 11.5 mph - 0.02 in Rain Rain
12:53 PM 36.0 °F 27.5 °F 36.0 °F 100% 30.06 in 3.0 mi SE 12.7 mph - 0.03 in Rain Light Rain
1:14 PM 35.6 °F 28.0 °F 35.6 °F 100% 30.03 in 2.5 mi SE 10.4 mph - 0.00 in Rain Light Rain
1:41 PM 35.6 °F 29.2 °F 35.6 °F 100% 30.02 in 4.0 mi SE 8.1 mph - 0.01 in Rain Light Rain
1:53 PM 36.0 °F 28.5 °F 36.0 °F 100% 30.02 in 6.0 mi SE 10.4 mph - 0.01 in   Overcast
2:20 PM 35.6 °F 28.6 °F 35.6 °F 100% 30.01 in 2.5 mi SE 9.2 mph - N/A   Overcast
2:43 PM 35.6 °F 27.5 °F 35.6 °F 100% 30.00 in 3.0 mi SE 11.5 mph - N/A   Overcast
2:53 PM 37.0 °F 31.0 °F 37.0 °F 100% 30.01 in 3.0 mi SE 8.1 mph - N/A   Overcast
3:20 PM 37.4 °F 30.8 °F 37.4 °F 100% 30.00 in 2.5 mi SE 9.2 mph - N/A   Overcast
3:33 PM 37.4 °F 30.3 °F 37.4 °F 100% 30.00 in 3.0 mi SSE 10.4 mph - N/A   Overcast
3:53 PM 37.0 °F 29.8 °F 37.0 °F 100% 30.01 in 5.0 mi SSE 10.4 mph - N/A   Overcast
4:53 PM 37.0 °F 31.0 °F 37.0 °F 100% 30.02 in 4.0 mi SSE 8.1 mph - N/A   Overcast
5:53 PM 37.0 °F 31.6 °F 37.0 °F 100% 30.02 in 5.0 mi SSE 6.9 mph - N/A   Overcast
6:48 PM 37.4 °F 32.8 °F 35.6 °F 93% 30.03 in 5.0 mi SSE 5.8 mph - N/A   Overcast
6:53 PM 37.0 °F 32.4 °F 37.0 °F 100% 30.04 in 5.0 mi SSE 5.8 mph - N/A   Overcast
7:53 PM 37.0 °F - 37.0 °F 100% 30.06 in 3.0 mi Calm Calm - N/A   Overcast
8:25 PM 37.4 °F - 37.4 °F 100% 30.05 in 2.5 mi Calm Calm - N/A   Overcast
8:40 PM 37.4 °F 34.9 °F 37.4 °F 100% 30.06 in 1.5 mi South 3.5 mph - N/A   Overcast
8:53 PM 37.0 °F - 37.0 °F 100% 30.06 in 0.8 mi Calm Calm - N/A   Overcast
9:37 PM 37.4 °F - 37.4 °F 100% 30.07 in 0.2 mi Calm Calm - N/A Fog Fog
9:53 PM 37.0 °F - 37.0 °F 100% 30.08 in 0.2 mi Calm Calm - N/A Fog Fog
11:53 PM 37.0 °F - 37.0 °F 100% 30.10 in 0.2 mi Calm Calm - N/A Fog Fog